| time (UTC) | temp C | wind direction | speed KPH | gust KPH | rain 1hr cm | rain 24hr cm | rain mn cm | humidity % | barometer mb |
| 20260906113524 | 19 | 94 | 4.8 | 9.7 | 0.00 | 0.00 | 0.00 | 51 | 1019.1 |
| 20260906112523 | 18 | 200 | 3.2 | 4.8 | 0.00 | 0.00 | 0.00 | 51 | 1019.1 |
| 20260906111525 | 18 | 185 | 3.2 | 8.0 | 0.00 | 0.00 | 0.00 | 52 | 1018.1 |
| 20260906110534 | 18 | 268 | 3.2 | 6.4 | 0.00 | 0.00 | 0.00 | 53 | 1018.1 |
| 20260906105524 | 17 | 23 | 6.4 | 14.5 | 0.00 | 0.00 | 0.00 | 53 | 1018.1 |
| 20260906104523 | 17 | 81 | 4.8 | 9.7 | 0.00 | 0.00 | 0.00 | 54 | 1018.1 |
| 20260906103517 | 17 | 48 | 4.8 | 11.3 | 0.00 | 0.00 | 0.00 | 54 | 1018.1 |
| 20260906102524 | 18 | 212 | 3.2 | 6.4 | 0.00 | 0.00 | 0.00 | 54 | 1018.1 |
| 20260906101524 | 17 | 35 | 4.8 | 6.4 | 0.00 | 0.00 | 0.00 | 56 | 1018.1 |
| 20260906100543 | 17 | 95 | 4.8 | 6.4 | 0.00 | 0.00 | 0.00 | 57 | 1018.1 |
| 20260906095517 | 17 | 217 | 3.2 | 4.8 | 0.00 | 0.00 | 0.00 | 57 | 1018.1 |
| 20260906094544 | 17 | 162 | 3.2 | 4.8 | 0.00 | 0.00 | 0.00 | 58 | 1018.1 |
| 20260906093522 | 16 | 131 | 3.2 | 4.8 | 0.00 | 0.00 | 0.00 | 60 | 1018.1 |
| 20260906092516 | 16 | 131 | 3.2 | 8.0 | 0.00 | 0.00 | 0.00 | 61 | 1018.1 |
| 20260906091526 | 16 | 109 | 4.8 | 9.7 | 0.00 | 0.00 | 0.00 | 61 | 1017.1 |
| 20260906090524 | 16 | 173 | 3.2 | 3.2 | 0.00 | 0.00 | 0.00 | 61 | 1017.1 |
| 20260906085526 | 16 | 152 | 3.2 | 6.4 | 0.00 | 0.00 | 0.00 | 61 | 1017.1 |
| 20260906084522 | 16 | 142 | 1.6 | 3.2 | 0.00 | 0.00 | 0.00 | 61 | 1017.1 |
| 20260906083524 | 16 | 226 | 3.2 | 6.4 | 0.00 | 0.00 | 0.00 | 62 | 1017.1 |
| 20260906082526 | 15 | 183 | 4.8 | 8.0 | 0.00 | 0.00 | 0.00 | 62 | 1017.1 |
| 20260906081549 | 15 | 234 | 1.6 | 3.2 | 0.00 | 0.00 | 0.00 | 63 | 1016.1 |
| 20260906080523 | 15 | 205 | 3.2 | 4.8 | 0.00 | 0.00 | 0.00 | 64 | 1016.1 |
| 20260906075523 | 15 | 187 | 1.6 | 3.2 | 0.00 | 0.00 | 0.00 | 64 | 1016.1 |
| 20260906074523 | 15 | 232 | 1.6 | 3.2 | 0.00 | 0.00 | 0.00 | 63 | 1016.1 |
| 20260906073522 | 15 | 215 | 1.6 | 6.4 | 0.00 | 0.00 | 0.00 | 63 | 1016.1 |
| 20260906072603 | 15 | 202 | 3.2 | 4.8 | 0.00 | 0.00 | 0.00 | 64 | 1016.1 |
| 20260906071523 | 15 | 188 | 3.2 | 3.2 | 0.00 | 0.00 | 0.00 | 63 | 1015.0 |
| 20260906070543 | 15 | 211 | 1.6 | 3.2 | 0.00 | 0.00 | 0.00 | 63 | 1015.0 |
| 20260906065523 | 15 | 225 | 1.6 | 4.8 | 0.00 | 0.00 | 0.00 | 63 | 1015.0 |
| 20260906064545 | 15 | 239 | 1.6 | 3.2 | 0.00 | 0.00 | 0.00 | 62 | 1015.0 |
| 20260906063523 | 15 | 173 | 3.2 | 4.8 | 0.00 | 0.00 | 0.00 | 62 | 1015.0 |
| 20260906062524 | 15 | 228 | 3.2 | 6.4 | 0.00 | 0.00 | 0.00 | 61 | 1015.0 |
| 20260906061539 | 15 | 193 | 3.2 | 4.8 | 0.00 | 0.00 | 0.00 | 61 | 1015.0 |
| 20260906060523 | 15 | 190 | 1.6 | 3.2 | 0.00 | 0.00 | 0.00 | 62 | 1015.0 |
| 20260906055526 | 15 | 239 | 4.8 | 6.4 | 0.00 | 0.00 | 0.00 | 62 | 1015.0 |
| 20260906054518 | 15 | 224 | 3.2 | 4.8 | 0.00 | 0.00 | 0.00 | 62 | 1015.0 |
| 20260906053523 | 15 | 234 | 3.2 | 4.8 | 0.00 | 0.00 | 0.00 | 62 | 1015.0 |
| 20260906052524 | 15 | 223 | 3.2 | 4.8 | 0.00 | 0.00 | 0.00 | 62 | 1015.0 |
| 20260906051516 | 15 | 178 | 3.2 | 4.8 | 0.00 | 0.00 | 0.00 | 62 | 1014.0 |
| 20260906050517 | 15 | 8 | 3.2 | 6.4 | 0.00 | 0.00 | 0.00 | 63 | 1014.0 |
| 20260906045524 | 15 | 221 | 3.2 | 3.2 | 0.00 | 0.00 | 0.00 | 63 | 1014.0 |
| 20260906044525 | 15 | 220 | 3.2 | 4.8 | 0.00 | 0.00 | 0.00 | 62 | 1014.0 |
| 20260906043603 | 15 | 187 | 3.2 | 6.4 | 0.00 | 0.00 | 0.00 | 62 | 1014.0 |
| 20260906042515 | 15 | 186 | 1.6 | 4.8 | 0.00 | 0.00 | 0.00 | 62 | 1014.0 |
| 20260906041544 | 15 | 224 | 1.6 | 3.2 | 0.00 | 0.00 | 0.00 | 62 | 1014.0 |
| 20260906040523 | 15 | 186 | 1.6 | 4.8 | 0.00 | 0.00 | 0.00 | 62 | 1014.0 |
| 20260906035518 | 15 | 212 | 3.2 | 3.2 | 0.00 | 0.00 | 0.00 | 62 | 1014.0 |
| 20260906034516 | 15 | 222 | 1.6 | 3.2 | 0.00 | 0.00 | 0.00 | 62 | 1014.0 |
| 20260906033523 | 15 | 240 | 1.6 | 3.2 | 0.00 | 0.00 | 0.00 | 62 | 1014.0 |
| 20260906032544 | 15 | 224 | 1.6 | 3.2 | 0.00 | 0.00 | 0.00 | 62 | 1014.0 |
| 20260906031523 | 15 | 300 | 3.2 | 3.2 | 0.00 | 0.00 | 0.00 | 62 | 1014.0 |
| 20260906030542 | 15 | 239 | 3.2 | 6.4 | 0.00 | 0.00 | 0.00 | 63 | 1014.0 |
| 20260906025522 | 15 | 231 | 3.2 | 4.8 | 0.00 | 0.00 | 0.00 | 63 | 1014.0 |
| 20260906024517 | 15 | 203 | 3.2 | 6.4 | 0.00 | 0.00 | 0.00 | 63 | 1014.0 |
| 20260906023522 | 15 | 174 | 1.6 | 3.2 | 0.00 | 0.00 | 0.00 | 64 | 1014.0 |
| 20260906022523 | 15 | 221 | 1.6 | 3.2 | 0.00 | 0.00 | 0.00 | 64 | 1014.0 |
| 20260906021523 | 15 | 248 | 1.6 | 4.8 | 0.00 | 0.00 | 0.00 | 64 | 1014.0 |
| 20260906020523 | 15 | 227 | 1.6 | 3.2 | 0.00 | 0.00 | 0.00 | 65 | 1014.0 |
| 20260906015523 | 15 | 195 | 1.6 | 3.2 | 0.00 | 0.00 | 0.00 | 65 | 1014.0 |
| 20260906014541 | 15 | 225 | 1.6 | 3.2 | 0.00 | 0.00 | 0.00 | 66 | 1014.0 |
| 20260906013526 | 15 | 203 | 0.0 | 1.6 | 0.00 | 0.00 | 0.00 | 66 | 1014.0 |
| 20260906012523 | 15 | 225 | 1.6 | 1.6 | 0.00 | 0.00 | 0.00 | 65 | 1014.0 |
| 20260906011523 | 15 | 160 | 1.6 | 1.6 | 0.00 | 0.00 | 0.00 | 65 | 1014.0 |
| 20260906010552 | 15 | 224 | 1.6 | 3.2 | 0.00 | 0.00 | 0.00 | 65 | 1014.0 |
| 20260906005543 | 15 | 222 | 1.6 | 3.2 | 0.00 | 0.00 | 0.00 | 65 | 1014.0 |
| 20260906004517 | 15 | 208 | 1.6 | 1.6 | 0.00 | 0.00 | 0.00 | 64 | 1014.0 |
| 20260906003522 | 15 | 235 | 1.6 | 3.2 | 0.00 | 0.00 | 0.00 | 64 | 1014.0 |
| 20260906002524 | 15 | 225 | 0.0 | 1.6 | 0.00 | 0.00 | 0.00 | 64 | 1014.0 |
| 20260906001516 | 15 | 238 | 3.2 | 6.4 | 0.00 | 0.00 | 0.00 | 64 | 1014.0 |
| 20260906000557 | -17 | 23 | 1.6 | 1.6 | 0.00 | 0.00 | 0.00 | 1014.0 | |
| 20260906000019 | 15 | 207 | 3.2 | 3.2 | 0.00 | 0.00 | 0.00 | 64 | 1014.0 |
| 20260905235023 | 15 | 243 | 1.6 | 3.2 | 0.00 | 0.00 | 0.00 | 64 | 1014.0 |
| 20260905234023 | 15 | 214 | 1.6 | 3.2 | 0.00 | 0.00 | 0.00 | 64 | 1013.0 |
| 20260905233022 | 15 | 209 | 1.6 | 3.2 | 0.00 | 0.00 | 0.00 | 64 | 1013.0 |
| 20260905232024 | 15 | 176 | 0.0 | 1.6 | 0.00 | 0.00 | 0.00 | 63 | 1013.0 |
| 20260905231018 | 15 | 206 | 1.6 | 3.2 | 0.00 | 0.00 | 0.00 | 63 | 1013.0 |
| 20260905230034 | 15 | 231 | 3.2 | 4.8 | 0.00 | 0.00 | 0.00 | 62 | 1013.0 |
| 20260905225020 | 15 | 209 | 1.6 | 1.6 | 0.00 | 0.00 | 0.00 | 61 | 1013.0 |
| 20260905224024 | 15 | 216 | 3.2 | 3.2 | 0.00 | 0.00 | 0.00 | 61 | 1013.0 |
| 20260905223042 | 15 | 216 | 1.6 | 3.2 | 0.00 | 0.00 | 0.00 | 60 | 1013.0 |
| 20260905222143 | 15 | 203 | 1.6 | 3.2 | 0.00 | 0.00 | 0.00 | 59 | 1013.0 |
| 20260905221023 | 15 | 240 | 1.6 | 3.2 | 0.00 | 0.00 | 0.00 | 59 | 1013.0 |
| 20260905220022 | 15 | 128 | 1.6 | 4.8 | 0.00 | 0.00 | 0.00 | 59 | 1013.0 |
| 20260905215023 | 16 | 234 | 1.6 | 3.2 | 0.00 | 0.00 | 0.00 | 59 | 1013.0 |
| 20260905214037 | 16 | 248 | 1.6 | 1.6 | 0.00 | 0.00 | 0.00 | 58 | 1013.0 |
| 20260905213033 | 16 | 239 | 1.6 | 3.2 | 0.00 | 0.00 | 0.00 | 57 | 1013.0 |
| 20260905212024 | 16 | 210 | 1.6 | 1.6 | 0.00 | 0.00 | 0.00 | 56 | 1013.0 |
| 20260905211023 | 16 | 205 | 1.6 | 4.8 | 0.00 | 0.00 | 0.00 | 55 | 1013.0 |
| 20260905210020 | 16 | 211 | 1.6 | 6.4 | 0.00 | 0.00 | 0.00 | 54 | 1012.7 |
| 20260905205027 | 16 | 220 | 0.0 | 1.6 | 0.00 | 0.00 | 0.00 | 53 | 1012.0 |
| 20260905204023 | 16 | 224 | 0.0 | 1.6 | 0.00 | 0.00 | 0.00 | 53 | 1012.0 |
| 20260905203044 | 16 | 225 | 1.6 | 3.2 | 0.00 | 0.00 | 0.00 | 53 | 1012.0 |
| 20260905202024 | 16 | 200 | 3.2 | 4.8 | 0.00 | 0.00 | 0.00 | 52 | 1012.0 |
| 20260905201023 | 16 | 257 | 1.6 | 4.8 | 0.00 | 0.00 | 0.00 | 52 | 1012.0 |
| 20260905200023 | 16 | 204 | 1.6 | 1.6 | 0.00 | 0.00 | 0.00 | 53 | 1012.0 |
| 20260905195022 | 16 | 58 | 4.8 | 8.0 | 0.00 | 0.00 | 0.00 | 54 | 1012.0 |
| 20260905194022 | 17 | 202 | 1.6 | 3.2 | 0.00 | 0.00 | 0.00 | 53 | 1012.0 |
| 20260905193043 | 16 | 241 | 1.6 | 3.2 | 0.00 | 0.00 | 0.00 | 54 | 1012.0 |
| 20260905192024 | 17 | 200 | 1.6 | 3.2 | 0.00 | 0.20 | 0.00 | 53 | 1012.0 |
| 20260905191018 | 17 | 237 | 1.6 | 4.8 | 0.00 | 0.20 | 0.00 | 53 | 1012.0 |
| 20260905190027 | 17 | 229 | 1.6 | 3.2 | 0.00 | 0.20 | 0.00 | 52 | 1012.0 |
| 20260905185017 | 17 | 209 | 1.6 | 3.2 | 0.00 | 0.20 | 0.00 | 51 | 1012.0 |
| 20260905184023 | 17 | 233 | 1.6 | 3.2 | 0.00 | 0.20 | 0.00 | 50 | 1012.0 |
| 20260905183023 | 17 | 196 | 1.6 | 1.6 | 0.00 | 0.20 | 0.00 | 49 | 1012.3 |
| 20260905182023 | 17 | 226 | 1.6 | 3.2 | 0.00 | 0.20 | 0.00 | 48 | 1013.0 |
| 20260905181123 | 17 | 0.0 | 0.0 | 0.00 | 0.20 | 0.00 | 48 | 1012.0 | |
| 20260905180018 | 17 | 206 | 1.6 | 3.2 | 0.00 | 0.20 | 0.00 | 48 | 1012.0 |
| 20260905175023 | 17 | 213 | 1.6 | 1.6 | 0.00 | 0.20 | 0.00 | 48 | 1012.0 |
| 20260905174023 | 17 | 248 | 0.0 | 1.6 | 0.00 | 0.20 | 0.00 | 47 | 1012.0 |
| 20260905173023 | 18 | 203 | 0.0 | 3.2 | 0.00 | 0.20 | 0.00 | 46 | 1012.0 |
| 20260905172023 | 18 | 241 | 1.6 | 3.2 | 0.00 | 0.20 | 0.00 | 46 | 1012.0 |
| 20260905171044 | 18 | 225 | 1.6 | 6.4 | 0.00 | 0.20 | 0.00 | 46 | 1012.0 |
| 20260905170022 | 18 | 202 | 1.6 | 4.8 | 0.00 | 0.20 | 0.00 | 45 | 1012.0 |
| 20260905165019 | 18 | 203 | 1.6 | 3.2 | 0.00 | 0.20 | 0.00 | 45 | 1012.0 |
| 20260905164016 | 18 | 174 | 0.0 | 1.6 | 0.00 | 0.20 | 0.00 | 44 | 1012.0 |
| 20260905163018 | 18 | 210 | 1.6 | 3.2 | 0.00 | 0.20 | 0.00 | 44 | 1012.0 |
| 20260905162017 | 18 | 225 | 3.2 | 4.8 | 0.00 | 0.20 | 0.00 | 43 | 1012.0 |
| 20260905161023 | 18 | 82 | 3.2 | 6.4 | 0.00 | 0.20 | 0.00 | 43 | 1012.0 |
| 20260905160015 | 18 | 226 | 1.6 | 3.2 | 0.00 | 0.20 | 0.00 | 43 | 1012.0 |
| 20260905155022 | 18 | 224 | 3.2 | 4.8 | 0.00 | 0.20 | 0.00 | 43 | 1012.0 |
| 20260905154018 | 18 | 236 | 3.2 | 4.8 | 0.00 | 0.20 | 0.00 | 42 | 1012.0 |
| 20260905153043 | 19 | 226 | 1.6 | 3.2 | 0.00 | 0.20 | 0.00 | 41 | 1012.0 |
| 20260905152023 | 19 | 177 | 1.6 | 3.2 | 0.00 | 0.20 | 0.00 | 42 | 1012.0 |
| 20260905151024 | 20 | 237 | 3.2 | 9.7 | 0.00 | 0.20 | 0.00 | 41 | 1012.0 |
| 20260905150023 | 20 | 202 | 3.2 | 4.8 | 0.00 | 0.20 | 0.00 | 40 | 1011.7 |
| 20260905145016 | 20 | 244 | 1.6 | 3.2 | 0.00 | 0.20 | 0.00 | 40 | 1011.0 |
| 20260905144023 | 20 | 263 | 3.2 | 8.0 | 0.00 | 0.20 | 0.00 | 40 | 1011.0 |
| 20260905143019 | 21 | 215 | 3.2 | 6.4 | 0.00 | 0.20 | 0.00 | 39 | 1011.0 |
| 20260905142045 | 21 | 208 | 3.2 | 4.8 | 0.00 | 0.20 | 0.00 | 39 | 1011.0 |
| 20260905141522 | 21 | 215 | 3.2 | 3.2 | 0.00 | 0.20 | 0.00 | 39 | 1011.0 |
| 20260905140523 | 21 | 204 | 3.2 | 8.0 | 0.00 | 0.20 | 0.00 | 39 | 1011.0 |
| 20260905135522 | 22 | 176 | 3.2 | 4.8 | 0.00 | 0.20 | 0.00 | 40 | 1011.0 |
| 20260905134523 | 21 | 219 | 3.2 | 6.4 | 0.00 | 0.20 | 0.00 | 41 | 1011.0 |
| 20260905133522 | 21 | 180 | 3.2 | 6.4 | 0.00 | 0.20 | 0.00 | 41 | 1011.0 |
| 20260905132526 | 21 | 149 | 3.2 | 4.8 | 0.00 | 0.20 | 0.00 | 41 | 1011.0 |
| 20260905131525 | 21 | 263 | 3.2 | 4.8 | 0.00 | 0.20 | 0.00 | 40 | 1011.0 |
| 20260905130523 | 21 | 33 | 3.2 | 3.2 | 0.00 | 0.20 | 0.00 | 39 | 1011.0 |
| 20260905125528 | 22 | 273 | 4.8 | 6.4 | 0.00 | 0.20 | 0.00 | 40 | 1010.0 |
| 20260905124540 | 22 | 195 | 3.2 | 4.8 | 0.00 | 0.20 | 0.00 | 40 | 1010.3 |
| 20260905123520 | 21 | 232 | 3.2 | 4.8 | 0.00 | 0.20 | 0.00 | 41 | 1011.0 |
| 20260905122522 | 21 | 239 | 1.6 | 4.8 | 0.00 | 0.20 | 0.00 | 41 | 1011.0 |
| 20260905121523 | 21 | 210 | 1.6 | 3.2 | 0.00 | 0.20 | 0.00 | 41 | 1011.0 |
| 20260905120522 | 21 | 228 | 3.2 | 3.2 | 0.00 | 0.20 | 0.00 | 41 | 1011.0 |
| 20260905115522 | 21 | 208 | 4.8 | 6.4 | 0.00 | 0.20 | 0.00 | 41 | 1011.0 |
| 20260905114522 | 21 | 132 | 3.2 | 11.3 | 0.00 | 0.20 | 0.00 | 41 | 1010.7 |